Year,Month,Day,Hour,Minute,Value (Times are PST for temperature in C)
2006,06,27,00,00,19.10
2006,06,27,00,01,19.10
2006,06,27,00,02,19.10
2006,06,27,00,03,19.10
2006,06,27,00,04,19.10
2006,06,27,00,05,19.10
2006,06,27,00,06,19.10
2006,06,27,00,07,19.10
2006,06,27,00,08,19.00
2006,06,27,00,09,18.90
2006,06,27,00,10,18.90
2006,06,27,00,11,18.90
2006,06,27,00,12,18.90
2006,06,27,00,13,18.80
2006,06,27,00,14,18.80
2006,06,27,00,15,18.70
2006,06,27,00,16,18.70
2006,06,27,00,17,18.60
2006,06,27,00,18,18.60
2006,06,27,00,19,18.60
2006,06,27,00,20,18.60
2006,06,27,00,21,18.60
2006,06,27,00,22,18.60
2006,06,27,00,23,18.60
2006,06,27,00,24,18.70
2006,06,27,00,25,18.70
2006,06,27,00,26,18.70
2006,06,27,00,27,18.70
2006,06,27,00,28,18.70
2006,06,27,00,29,18.70
2006,06,27,00,30,18.70
2006,06,27,00,31,18.70
2006,06,27,00,32,18.70
2006,06,27,00,33,18.70
2006,06,27,00,34,18.70
2006,06,27,00,35,18.70
2006,06,27,00,36,18.70
2006,06,27,00,37,18.70
2006,06,27,00,38,18.70
2006,06,27,00,39,18.70
2006,06,27,00,40,18.70
2006,06,27,00,41,18.60
2006,06,27,00,42,18.60
2006,06,27,00,43,18.50
2006,06,27,00,44,18.50
2006,06,27,00,45,18.50
2006,06,27,00,46,18.40
2006,06,27,00,47,18.40
2006,06,27,00,48,18.30
2006,06,27,00,49,18.30
2006,06,27,00,50,18.30
2006,06,27,00,51,18.30
2006,06,27,00,52,18.20
2006,06,27,00,53,18.20
2006,06,27,00,54,18.10
2006,06,27,00,55,18.00
2006,06,27,00,56,17.90
2006,06,27,00,57,17.90
2006,06,27,00,58,17.90
2006,06,27,00,59,17.90
2006,06,27,01,00,17.80
2006,06,27,01,01,17.80
2006,06,27,01,02,17.80
2006,06,27,01,03,17.70
2006,06,27,01,04,17.70
2006,06,27,01,05,17.70
2006,06,27,01,06,17.70
2006,06,27,01,07,17.60
2006,06,27,01,08,17.60
2006,06,27,01,09,17.60
2006,06,27,01,10,17.60
2006,06,27,01,11,17.60
2006,06,27,01,12,17.60
2006,06,27,01,13,17.60
2006,06,27,01,14,17.60
2006,06,27,01,15,17.50
2006,06,27,01,16,17.50
2006,06,27,01,17,17.50
2006,06,27,01,18,17.50
2006,06,27,01,19,17.50
2006,06,27,01,20,17.50
2006,06,27,01,21,17.40
2006,06,27,01,22,17.40
2006,06,27,01,23,17.40
2006,06,27,01,24,17.30
2006,06,27,01,25,17.30
2006,06,27,01,26,17.30
2006,06,27,01,27,17.30
2006,06,27,01,28,17.30
2006,06,27,01,29,17.30
2006,06,27,01,30,17.30
2006,06,27,01,31,17.20
2006,06,27,01,32,17.20
2006,06,27,01,33,17.10
2006,06,27,01,34,17.10
2006,06,27,01,35,17.10
2006,06,27,01,36,17.00
2006,06,27,01,37,17.00
2006,06,27,01,38,17.00
2006,06,27,01,39,17.00
2006,06,27,01,40,16.90
2006,06,27,01,41,16.90
2006,06,27,01,42,16.90
2006,06,27,01,43,16.90
2006,06,27,01,44,16.90
2006,06,27,01,45,16.90
2006,06,27,01,46,16.90
2006,06,27,01,47,16.90
2006,06,27,01,48,16.90
2006,06,27,01,49,16.90
2006,06,27,01,50,16.90
2006,06,27,01,51,16.90
2006,06,27,01,52,16.90
2006,06,27,01,53,16.90
2006,06,27,01,54,16.90
2006,06,27,01,55,16.90
2006,06,27,01,56,16.90
2006,06,27,01,57,16.90
2006,06,27,01,58,16.90
2006,06,27,01,59,16.80
2006,06,27,02,00,16.80
2006,06,27,02,01,16.80
2006,06,27,02,02,16.80
2006,06,27,02,03,16.80
2006,06,27,02,04,16.70
2006,06,27,02,05,16.70
2006,06,27,02,06,16.70
2006,06,27,02,07,16.70
2006,06,27,02,08,16.70
2006,06,27,02,09,16.80
2006,06,27,02,10,16.80
2006,06,27,02,11,16.70
2006,06,27,02,12,16.70
2006,06,27,02,13,16.70
2006,06,27,02,14,16.70
2006,06,27,02,15,16.70
2006,06,27,02,16,16.70
2006,06,27,02,17,16.70
2006,06,27,02,18,16.70
2006,06,27,02,19,16.70
2006,06,27,02,20,16.70
2006,06,27,02,21,16.60
2006,06,27,02,22,16.60
2006,06,27,02,23,16.60
2006,06,27,02,24,16.60
2006,06,27,02,25,16.50
2006,06,27,02,26,16.40
2006,06,27,02,27,16.40
2006,06,27,02,28,16.40
2006,06,27,02,29,16.40
2006,06,27,02,30,16.40
2006,06,27,02,31,16.40
2006,06,27,02,32,16.40
2006,06,27,02,33,16.40
2006,06,27,02,34,16.40
2006,06,27,02,35,16.30
2006,06,27,02,36,16.30
2006,06,27,02,37,16.30
2006,06,27,02,38,16.30
2006,06,27,02,39,16.20
2006,06,27,02,40,16.20
2006,06,27,02,41,16.20
2006,06,27,02,42,16.10
2006,06,27,02,43,16.10
2006,06,27,02,44,16.10
2006,06,27,02,45,16.10
2006,06,27,02,46,16.10
2006,06,27,02,47,16.20
2006,06,27,02,48,16.20
2006,06,27,02,49,16.20
2006,06,27,02,50,16.20
2006,06,27,02,51,16.30
2006,06,27,02,52,16.30
2006,06,27,02,53,16.30
2006,06,27,02,54,16.30
2006,06,27,02,55,16.30
2006,06,27,02,56,16.20
2006,06,27,02,57,16.20
2006,06,27,02,58,16.20
2006,06,27,02,59,16.10
2006,06,27,03,00,16.10
2006,06,27,03,01,16.10
2006,06,27,03,02,16.10
2006,06,27,03,03,16.00
2006,06,27,03,04,15.90
2006,06,27,03,05,15.90
2006,06,27,03,06,15.90
2006,06,27,03,07,15.80
2006,06,27,03,08,15.80
2006,06,27,03,09,15.80
2006,06,27,03,10,15.80
2006,06,27,03,11,15.80
2006,06,27,03,12,15.70
2006,06,27,03,13,15.70
2006,06,27,03,14,15.60
2006,06,27,03,15,15.60
2006,06,27,03,16,15.60
2006,06,27,03,17,15.50
2006,06,27,03,18,15.50
2006,06,27,03,19,15.40
2006,06,27,03,20,15.40
2006,06,27,03,21,15.40
2006,06,27,03,22,15.50
2006,06,27,03,23,15.50
2006,06,27,03,24,15.60
2006,06,27,03,25,15.60
2006,06,27,03,26,15.60
2006,06,27,03,27,15.60
2006,06,27,03,28,15.70
2006,06,27,03,29,15.80
2006,06,27,03,30,15.90
2006,06,27,03,31,16.00
2006,06,27,03,32,16.10
2006,06,27,03,33,16.20
2006,06,27,03,34,16.20
2006,06,27,03,35,16.30
2006,06,27,03,36,16.30
2006,06,27,03,37,16.30
2006,06,27,03,38,16.40
2006,06,27,03,39,16.40
2006,06,27,03,40,16.40
2006,06,27,03,41,16.40
2006,06,27,03,42,16.40
2006,06,27,03,43,16.40
2006,06,27,03,44,16.40
2006,06,27,03,45,16.40
2006,06,27,03,46,16.40
2006,06,27,03,47,16.60
2006,06,27,03,48,16.60
2006,06,27,03,49,16.60
2006,06,27,03,50,16.70
2006,06,27,03,51,16.70
2006,06,27,03,52,16.70
2006,06,27,03,53,16.70
2006,06,27,03,54,16.70
2006,06,27,03,55,16.70
2006,06,27,03,56,16.70
2006,06,27,03,57,16.70
2006,06,27,03,58,16.70
2006,06,27,03,59,16.70
2006,06,27,04,00,16.70
2006,06,27,04,01,16.70
2006,06,27,04,02,16.70
2006,06,27,04,03,16.60
2006,06,27,04,04,16.50
2006,06,27,04,05,16.40
2006,06,27,04,06,16.30
2006,06,27,04,07,16.20
2006,06,27,04,08,16.10
2006,06,27,04,09,16.10
2006,06,27,04,10,16.10
2006,06,27,04,11,16.00
2006,06,27,04,12,15.90
2006,06,27,04,13,15.90
2006,06,27,04,14,15.90
2006,06,27,04,15,15.80
2006,06,27,04,16,15.80
2006,06,27,04,17,15.70
2006,06,27,04,18,15.70
2006,06,27,04,19,15.60
2006,06,27,04,20,15.50
2006,06,27,04,21,15.50
2006,06,27,04,22,15.40
2006,06,27,04,23,15.30
2006,06,27,04,24,15.30
2006,06,27,04,25,15.30
2006,06,27,04,26,15.30
2006,06,27,04,27,15.30
2006,06,27,04,28,15.30
2006,06,27,04,29,15.20
2006,06,27,04,30,15.20
2006,06,27,04,31,15.20
2006,06,27,04,32,15.20
2006,06,27,04,33,15.20
2006,06,27,04,34,15.20
2006,06,27,04,35,15.20
2006,06,27,04,36,15.20
2006,06,27,04,37,15.20
2006,06,27,04,38,15.20
2006,06,27,04,39,15.30
2006,06,27,04,40,15.30
2006,06,27,04,41,15.30
2006,06,27,04,42,15.30
2006,06,27,04,43,15.30
2006,06,27,04,44,15.20
2006,06,27,04,45,15.20
2006,06,27,04,46,15.10
2006,06,27,04,47,15.10
2006,06,27,04,48,15.00
2006,06,27,04,49,15.00
2006,06,27,04,50,14.90
2006,06,27,04,51,14.80
2006,06,27,04,52,14.80
2006,06,27,04,53,14.80
2006,06,27,04,54,14.70
2006,06,27,04,55,14.60
2006,06,27,04,56,14.60
2006,06,27,04,57,14.50
2006,06,27,04,58,14.50
2006,06,27,04,59,14.40
2006,06,27,05,00,14.40
2006,06,27,05,01,14.30
2006,06,27,05,02,14.30
2006,06,27,05,03,14.20
2006,06,27,05,04,14.20
2006,06,27,05,05,14.20
2006,06,27,05,06,14.20
2006,06,27,05,07,14.20
2006,06,27,05,08,14.20
2006,06,27,05,09,14.20
2006,06,27,05,10,14.20
2006,06,27,05,11,14.20
2006,06,27,05,12,14.20
2006,06,27,05,13,14.10
2006,06,27,05,14,14.10
2006,06,27,05,15,14.10
2006,06,27,05,16,14.00
2006,06,27,05,17,14.00
2006,06,27,05,18,14.00
2006,06,27,05,19,13.90
2006,06,27,05,20,13.90
2006,06,27,05,21,13.80
2006,06,27,05,22,13.80
2006,06,27,05,23,13.80
2006,06,27,05,24,13.70
2006,06,27,05,25,13.70
2006,06,27,05,26,13.70
2006,06,27,05,27,13.70
2006,06,27,05,28,13.70
2006,06,27,05,29,13.70
2006,06,27,05,30,13.70
2006,06,27,05,31,13.70
2006,06,27,05,32,13.70
2006,06,27,05,33,13.70
2006,06,27,05,34,13.70
2006,06,27,05,35,13.70
2006,06,27,05,36,13.70
2006,06,27,05,37,13.70
2006,06,27,05,38,13.70
2006,06,27,05,39,13.70
2006,06,27,05,40,13.70
2006,06,27,05,41,13.80
2006,06,27,05,42,13.80
2006,06,27,05,43,13.80
2006,06,27,05,44,13.90
2006,06,27,05,45,13.90
2006,06,27,05,46,13.90
2006,06,27,05,47,13.90
2006,06,27,05,48,13.90
2006,06,27,05,49,13.90
2006,06,27,05,50,13.90
2006,06,27,05,51,13.90
2006,06,27,05,52,13.90
2006,06,27,05,53,14.00
2006,06,27,05,54,14.00
2006,06,27,05,55,14.10
2006,06,27,05,56,14.10
2006,06,27,05,57,14.10
2006,06,27,05,58,14.10
2006,06,27,05,59,14.20
2006,06,27,06,00,14.20
2006,06,27,06,01,14.20
2006,06,27,06,02,14.20
2006,06,27,06,03,14.20
2006,06,27,06,04,14.30
2006,06,27,06,05,14.30
2006,06,27,06,06,14.40
2006,06,27,06,07,14.40
2006,06,27,06,08,14.40
2006,06,27,06,09,14.40
2006,06,27,06,10,14.50
2006,06,27,06,11,14.50
2006,06,27,06,12,14.60
2006,06,27,06,13,14.60
2006,06,27,06,14,14.70
2006,06,27,06,15,14.70
2006,06,27,06,16,14.80
2006,06,27,06,17,14.80
2006,06,27,06,18,14.90
2006,06,27,06,19,14.90
2006,06,27,06,20,15.00
2006,06,27,06,21,15.00
2006,06,27,06,22,15.10
2006,06,27,06,23,15.10
2006,06,27,06,24,15.10
2006,06,27,06,25,15.20
2006,06,27,06,26,15.20
2006,06,27,06,27,15.30
2006,06,27,06,28,15.50
2006,06,27,06,29,15.50
2006,06,27,06,30,15.60
2006,06,27,06,31,15.60
2006,06,27,06,32,15.60
2006,06,27,06,33,15.60
2006,06,27,06,34,15.60
2006,06,27,06,35,15.60
2006,06,27,06,36,15.60
2006,06,27,06,37,15.60
2006,06,27,06,38,15.60
2006,06,27,06,39,15.60
2006,06,27,06,40,15.60
2006,06,27,06,41,15.70
2006,06,27,06,42,15.70
2006,06,27,06,43,15.80
2006,06,27,06,44,15.80
2006,06,27,06,45,15.80
2006,06,27,06,46,15.90
2006,06,27,06,47,16.10
2006,06,27,06,48,16.10
2006,06,27,06,49,16.30
2006,06,27,06,50,16.40
2006,06,27,06,51,16.40
2006,06,27,06,52,16.50
2006,06,27,06,53,16.60
2006,06,27,06,54,16.60
2006,06,27,06,55,16.70
2006,06,27,06,56,16.70
2006,06,27,06,57,16.70
2006,06,27,06,58,16.70
2006,06,27,06,59,16.70
2006,06,27,07,00,16.70
2006,06,27,07,01,16.70
2006,06,27,07,02,16.70
2006,06,27,07,03,16.70
2006,06,27,07,04,16.80
2006,06,27,07,05,16.80
2006,06,27,07,06,16.90
2006,06,27,07,07,17.00
2006,06,27,07,08,17.10
2006,06,27,07,09,17.10
2006,06,27,07,10,17.20
2006,06,27,07,11,17.30
2006,06,27,07,12,17.40
2006,06,27,07,13,17.50
2006,06,27,07,14,17.60
2006,06,27,07,15,17.70
2006,06,27,07,16,17.90
2006,06,27,07,17,17.90
2006,06,27,07,18,18.00
2006,06,27,07,19,18.10
2006,06,27,07,20,18.20
2006,06,27,07,21,18.20
2006,06,27,07,22,18.10
2006,06,27,07,23,18.10
2006,06,27,07,24,18.00
2006,06,27,07,25,17.90
2006,06,27,07,26,17.80
2006,06,27,07,27,17.80
2006,06,27,07,28,17.70
2006,06,27,07,29,17.70
2006,06,27,07,30,17.80
2006,06,27,07,31,17.90
2006,06,27,07,32,17.90
2006,06,27,07,33,17.90
2006,06,27,07,34,17.90
2006,06,27,07,35,18.10
2006,06,27,07,36,18.10
2006,06,27,07,37,18.10
2006,06,27,07,38,18.10
2006,06,27,07,39,18.10
2006,06,27,07,40,18.20
2006,06,27,07,41,18.20
2006,06,27,07,42,18.30
2006,06,27,07,43,18.30
2006,06,27,07,44,18.30
2006,06,27,07,45,18.30
2006,06,27,07,46,18.40
2006,06,27,07,47,18.40
2006,06,27,07,48,18.50
2006,06,27,07,49,18.50
2006,06,27,07,50,18.50
2006,06,27,07,51,18.60
2006,06,27,07,52,18.70
2006,06,27,07,53,18.80
2006,06,27,07,54,18.90
2006,06,27,07,55,19.10
2006,06,27,07,56,19.10
2006,06,27,07,57,19.30
2006,06,27,07,58,19.40
2006,06,27,07,59,19.50
2006,06,27,08,00,19.60
2006,06,27,08,01,19.70
2006,06,27,08,02,19.80
2006,06,27,08,03,19.90
2006,06,27,08,04,19.90
2006,06,27,08,05,20.00
2006,06,27,08,06,20.10
2006,06,27,08,07,20.10
2006,06,27,08,08,20.20
2006,06,27,08,09,20.20
2006,06,27,08,10,20.20
2006,06,27,08,11,20.20
2006,06,27,08,12,20.20
2006,06,27,08,13,20.20
2006,06,27,08,14,20.30
2006,06,27,08,15,20.40
2006,06,27,08,16,20.50
2006,06,27,08,17,20.50
2006,06,27,08,18,20.60
2006,06,27,08,19,20.60
2006,06,27,08,20,20.70
2006,06,27,08,21,20.70
2006,06,27,08,22,20.80
2006,06,27,08,23,20.80
2006,06,27,08,24,20.90
2006,06,27,08,25,21.00
2006,06,27,08,26,21.10
2006,06,27,08,27,21.20
2006,06,27,08,28,21.20
2006,06,27,08,29,21.30
2006,06,27,08,30,21.30
2006,06,27,08,31,21.30
2006,06,27,08,32,21.20
2006,06,27,08,33,21.20
2006,06,27,08,34,21.20
2006,06,27,08,35,21.20
2006,06,27,08,36,21.20
2006,06,27,08,37,21.20
2006,06,27,08,38,21.30
2006,06,27,08,39,21.40
2006,06,27,08,40,21.40
2006,06,27,08,41,21.50
2006,06,27,08,42,21.60
2006,06,27,08,43,21.60
2006,06,27,08,44,21.60
2006,06,27,08,45,21.60
2006,06,27,08,46,21.60
2006,06,27,08,47,21.60
2006,06,27,08,48,21.60
2006,06,27,08,49,21.60
2006,06,27,08,50,21.40
2006,06,27,08,51,21.40
2006,06,27,08,52,21.40
2006,06,27,08,53,21.30
2006,06,27,08,54,21.30
2006,06,27,08,55,21.40
2006,06,27,08,56,21.40
2006,06,27,08,57,21.40
2006,06,27,08,58,21.40
2006,06,27,08,59,21.40
2006,06,27,09,00,21.30
2006,06,27,09,01,21.30
2006,06,27,09,02,21.40
2006,06,27,09,03,21.50
2006,06,27,09,04,21.60
2006,06,27,09,05,21.60
2006,06,27,09,06,21.70
2006,06,27,09,07,21.70
2006,06,27,09,08,21.70
2006,06,27,09,09,21.80
2006,06,27,09,10,21.80
2006,06,27,09,11,21.90
2006,06,27,09,12,22.00
2006,06,27,09,13,22.00
2006,06,27,09,14,22.00
2006,06,27,09,15,22.20
2006,06,27,09,16,22.20
2006,06,27,09,17,22.10
2006,06,27,09,18,22.10
2006,06,27,09,19,22.10
2006,06,27,09,20,22.00
2006,06,27,09,21,22.00
2006,06,27,09,22,22.00
2006,06,27,09,23,22.10
2006,06,27,09,24,22.20
2006,06,27,09,25,22.30
2006,06,27,09,26,22.30
2006,06,27,09,27,22.50
2006,06,27,09,28,22.50
2006,06,27,09,29,22.60
2006,06,27,09,30,22.70
2006,06,27,09,31,22.60
2006,06,27,09,32,22.50
2006,06,27,09,33,22.60
2006,06,27,09,34,22.50
2006,06,27,09,35,22.30
2006,06,27,09,36,22.20
2006,06,27,09,37,22.20
2006,06,27,09,38,22.10
2006,06,27,09,39,22.20
2006,06,27,09,40,22.30
2006,06,27,09,41,22.40
2006,06,27,09,42,22.60
2006,06,27,09,43,22.70
2006,06,27,09,44,22.60
2006,06,27,09,45,22.70
2006,06,27,09,46,22.70
2006,06,27,09,47,22.80
2006,06,27,09,48,22.70
2006,06,27,09,49,22.60
2006,06,27,09,50,22.70
2006,06,27,09,51,22.70
2006,06,27,09,52,22.70
2006,06,27,09,53,22.80
2006,06,27,09,54,22.90
2006,06,27,09,55,22.90
2006,06,27,09,56,22.90
2006,06,27,09,57,23.00
2006,06,27,09,58,23.10
2006,06,27,09,59,23.10
2006,06,27,10,00,23.10
2006,06,27,10,01,23.10
2006,06,27,10,02,23.10
2006,06,27,10,03,23.10
2006,06,27,10,04,23.00
2006,06,27,10,05,23.10
2006,06,27,10,06,23.20
2006,06,27,10,07,23.20
2006,06,27,10,08,23.30
2006,06,27,10,09,23.30
2006,06,27,10,10,23.40
2006,06,27,10,11,23.40
2006,06,27,10,12,23.40
2006,06,27,10,13,23.50
2006,06,27,10,14,23.40
2006,06,27,10,15,23.40
2006,06,27,10,16,23.40
2006,06,27,10,17,23.20
2006,06,27,10,18,23.10
2006,06,27,10,19,23.00
2006,06,27,10,20,22.90
2006,06,27,10,21,22.90
2006,06,27,10,22,22.80
2006,06,27,10,23,22.80
2006,06,27,10,24,22.80
2006,06,27,10,25,22.90
2006,06,27,10,26,22.90
2006,06,27,10,27,22.90
2006,06,27,10,28,22.90
2006,06,27,10,29,23.00
2006,06,27,10,30,23.00
2006,06,27,10,31,22.90
2006,06,27,10,32,22.90
2006,06,27,10,33,22.90
2006,06,27,10,34,22.90
2006,06,27,10,35,22.90
2006,06,27,10,36,22.90
2006,06,27,10,37,22.90
2006,06,27,10,38,22.90
2006,06,27,10,39,22.70
2006,06,27,10,40,22.70
2006,06,27,10,41,22.60
2006,06,27,10,42,22.60
2006,06,27,10,43,22.60
2006,06,27,10,44,22.70
2006,06,27,10,45,22.70
2006,06,27,10,46,22.70
2006,06,27,10,47,22.90
2006,06,27,10,48,23.00
2006,06,27,10,49,23.20
2006,06,27,10,50,23.20
2006,06,27,10,51,23.20
2006,06,27,10,52,23.10
2006,06,27,10,53,23.10
2006,06,27,10,54,23.20
2006,06,27,10,55,23.30
2006,06,27,10,56,23.40
2006,06,27,10,57,23.40
2006,06,27,10,58,23.40
2006,06,27,10,59,23.40
2006,06,27,11,00,23.30
2006,06,27,11,01,23.20
2006,06,27,11,02,23.10
2006,06,27,11,03,23.10
2006,06,27,11,04,23.10
2006,06,27,11,05,23.10
2006,06,27,11,06,23.00
2006,06,27,11,07,22.90
2006,06,27,11,08,22.90
2006,06,27,11,09,22.90
2006,06,27,11,10,22.90
2006,06,27,11,11,23.10
2006,06,27,11,12,23.20
2006,06,27,11,13,23.20
2006,06,27,11,14,23.20
2006,06,27,11,15,23.10
2006,06,27,11,16,22.90
2006,06,27,11,17,22.80
2006,06,27,11,18,22.90
2006,06,27,11,19,22.90
2006,06,27,11,20,22.90
2006,06,27,11,21,23.00
2006,06,27,11,22,22.90
2006,06,27,11,23,22.80
2006,06,27,11,24,22.80
2006,06,27,11,25,22.80
2006,06,27,11,26,22.90
2006,06,27,11,27,22.90
2006,06,27,11,28,22.90
2006,06,27,11,29,22.90
2006,06,27,11,30,22.80
2006,06,27,11,31,22.80
2006,06,27,11,32,22.80
2006,06,27,11,33,22.80
2006,06,27,11,34,22.80
2006,06,27,11,35,22.80
2006,06,27,11,36,22.70
2006,06,27,11,37,22.60
2006,06,27,11,38,22.80
2006,06,27,11,39,22.90
2006,06,27,11,40,22.90
2006,06,27,11,41,23.10
2006,06,27,11,42,23.00
2006,06,27,11,43,23.00
2006,06,27,11,44,23.10
2006,06,27,11,45,23.00
2006,06,27,11,46,22.90
2006,06,27,11,47,22.90
2006,06,27,11,48,22.80
2006,06,27,11,49,22.80
2006,06,27,11,50,22.80
2006,06,27,11,51,22.90
2006,06,27,11,52,22.90
2006,06,27,11,53,22.90
2006,06,27,11,54,23.00
2006,06,27,11,55,23.10
2006,06,27,11,56,23.10
2006,06,27,11,57,23.10
2006,06,27,11,58,23.10
2006,06,27,11,59,23.20
2006,06,27,12,00,23.40
2006,06,27,12,01,23.40
2006,06,27,12,02,23.30
2006,06,27,12,03,23.30
2006,06,27,12,04,23.30
2006,06,27,12,05,23.30
2006,06,27,12,06,23.30
2006,06,27,12,07,23.40
2006,06,27,12,08,23.40
2006,06,27,12,09,23.40
2006,06,27,12,10,23.40
2006,06,27,12,11,23.50
2006,06,27,12,12,23.70
2006,06,27,12,13,23.70
2006,06,27,12,14,23.90
2006,06,27,12,15,23.90
2006,06,27,12,16,23.90
2006,06,27,12,17,23.80
2006,06,27,12,18,23.90
2006,06,27,12,19,23.90
2006,06,27,12,20,24.00
2006,06,27,12,21,24.10
2006,06,27,12,22,24.10
2006,06,27,12,23,24.10
2006,06,27,12,24,24.10
2006,06,27,12,25,23.90
2006,06,27,12,26,23.90
2006,06,27,12,27,23.90
2006,06,27,12,28,23.90
2006,06,27,12,29,23.70
2006,06,27,12,30,23.80
2006,06,27,12,31,24.00
2006,06,27,12,32,24.10
2006,06,27,12,33,24.10
2006,06,27,12,34,24.00
2006,06,27,12,35,23.80
2006,06,27,12,36,23.70
2006,06,27,12,37,23.80
2006,06,27,12,38,23.90
2006,06,27,12,39,24.00
2006,06,27,12,40,24.10
2006,06,27,12,41,24.10
2006,06,27,12,42,24.10
2006,06,27,12,43,24.10
2006,06,27,12,44,23.90
2006,06,27,12,45,23.90
2006,06,27,12,46,23.80
2006,06,27,12,47,23.70
2006,06,27,12,48,23.80
2006,06,27,12,49,23.90
2006,06,27,12,50,24.10
2006,06,27,12,51,24.20
2006,06,27,12,52,24.30
2006,06,27,12,53,24.30
2006,06,27,12,54,24.40
2006,06,27,12,55,24.60
2006,06,27,12,56,24.60
2006,06,27,12,57,24.60
2006,06,27,12,58,24.50
2006,06,27,12,59,24.50
2006,06,27,13,00,24.50
2006,06,27,13,01,24.40
2006,06,27,13,02,24.40
2006,06,27,13,03,24.40
2006,06,27,13,04,24.30
2006,06,27,13,05,24.20
2006,06,27,13,06,24.20
2006,06,27,13,07,24.20
2006,06,27,13,08,24.30
2006,06,27,13,09,24.50
2006,06,27,13,10,24.50
2006,06,27,13,11,24.60
2006,06,27,13,12,24.70
2006,06,27,13,13,24.80
2006,06,27,13,14,24.80
2006,06,27,13,15,24.80
2006,06,27,13,16,24.90
2006,06,27,13,17,24.90
2006,06,27,13,18,24.90
2006,06,27,13,19,24.80
2006,06,27,13,20,24.70
2006,06,27,13,21,24.60
2006,06,27,13,22,24.40
2006,06,27,13,23,24.40
2006,06,27,13,24,24.40
2006,06,27,13,25,24.30
2006,06,27,13,26,24.50
2006,06,27,13,27,24.50
2006,06,27,13,28,24.40
2006,06,27,13,29,24.30
2006,06,27,13,30,24.30
2006,06,27,13,31,24.30
2006,06,27,13,32,24.40
2006,06,27,13,33,24.40
2006,06,27,13,34,24.30
2006,06,27,13,35,24.30
2006,06,27,13,36,24.30
2006,06,27,13,37,24.20
2006,06,27,13,38,24.20
2006,06,27,13,39,24.10
2006,06,27,13,40,23.90
2006,06,27,13,41,23.90
2006,06,27,13,42,24.20
2006,06,27,13,43,24.40
2006,06,27,13,44,24.40
2006,06,27,13,45,24.30
2006,06,27,13,46,24.30
2006,06,27,13,47,24.30
2006,06,27,13,48,24.30
2006,06,27,13,49,24.40
2006,06,27,13,50,24.50
2006,06,27,13,51,24.50
2006,06,27,13,52,24.60
2006,06,27,13,53,24.60
2006,06,27,13,54,24.70
2006,06,27,13,55,24.60
2006,06,27,13,56,24.50
2006,06,27,13,57,24.50
2006,06,27,13,58,24.60
2006,06,27,13,59,24.60
2006,06,27,14,00,24.40
2006,06,27,14,01,24.40
2006,06,27,14,02,24.50
2006,06,27,14,03,24.40
2006,06,27,14,04,24.30
2006,06,27,14,05,24.30
2006,06,27,14,06,24.30
2006,06,27,14,07,24.20
2006,06,27,14,08,24.20
2006,06,27,14,09,24.30
2006,06,27,14,10,24.50
2006,06,27,14,11,24.60
2006,06,27,14,12,24.80
2006,06,27,14,13,24.70
2006,06,27,14,14,24.80
2006,06,27,14,15,25.00
2006,06,27,14,16,25.00
2006,06,27,14,17,25.10
2006,06,27,14,18,25.10
2006,06,27,14,19,24.90
2006,06,27,14,20,24.70
2006,06,27,14,21,24.70
2006,06,27,14,22,24.80
2006,06,27,14,23,24.80
2006,06,27,14,24,24.90
2006,06,27,14,25,25.00
2006,06,27,14,26,25.10
2006,06,27,14,27,25.30
2006,06,27,14,28,25.40
2006,06,27,14,29,25.60
2006,06,27,14,30,25.70
2006,06,27,14,31,25.90
2006,06,27,14,32,25.90
2006,06,27,14,33,25.90
2006,06,27,14,34,26.00
2006,06,27,14,35,25.90
2006,06,27,14,36,25.70
2006,06,27,14,37,25.50
2006,06,27,14,38,25.40
2006,06,27,14,39,25.30
2006,06,27,14,40,25.40
2006,06,27,14,41,25.40
2006,06,27,14,42,25.30
2006,06,27,14,43,25.20
2006,06,27,14,44,25.30
2006,06,27,14,45,25.30
2006,06,27,14,46,25.30
2006,06,27,14,47,25.20
2006,06,27,14,48,25.20
2006,06,27,14,49,25.20
2006,06,27,14,50,25.20
2006,06,27,14,51,25.30
2006,06,27,14,52,25.50
2006,06,27,14,53,25.60
2006,06,27,14,54,25.60
2006,06,27,14,55,25.50
2006,06,27,14,56,25.30
2006,06,27,14,57,25.10
2006,06,27,14,58,24.90
2006,06,27,14,59,24.80
2006,06,27,15,00,24.60
2006,06,27,15,01,24.60
2006,06,27,15,02,24.60
2006,06,27,15,03,24.70
2006,06,27,15,04,24.70
2006,06,27,15,05,24.80
2006,06,27,15,06,25.20
2006,06,27,15,07,25.30
2006,06,27,15,08,25.40
2006,06,27,15,09,25.50
2006,06,27,15,10,25.50
2006,06,27,15,11,25.30
2006,06,27,15,12,25.20
2006,06,27,15,13,25.00
2006,06,27,15,14,25.00
2006,06,27,15,15,24.90
2006,06,27,15,16,24.90
2006,06,27,15,17,25.30
2006,06,27,15,18,25.40
2006,06,27,15,19,25.40
2006,06,27,15,20,25.40
2006,06,27,15,21,25.40
2006,06,27,15,22,25.40
2006,06,27,15,23,25.30
2006,06,27,15,24,25.20
2006,06,27,15,25,25.10
2006,06,27,15,26,25.20
2006,06,27,15,27,25.30
2006,06,27,15,28,25.40
2006,06,27,15,29,25.60
2006,06,27,15,30,25.80
2006,06,27,15,31,25.90
2006,06,27,15,32,25.90
2006,06,27,15,33,25.60
2006,06,27,15,34,25.50
2006,06,27,15,35,25.70
2006,06,27,15,36,25.80
2006,06,27,15,37,25.80
2006,06,27,15,38,25.80
2006,06,27,15,39,25.80
2006,06,27,15,40,25.90
2006,06,27,15,41,26.00
2006,06,27,15,42,25.90
2006,06,27,15,43,25.80
2006,06,27,15,44,25.50
2006,06,27,15,45,25.40
2006,06,27,15,46,25.30
2006,06,27,15,47,25.30
2006,06,27,15,48,25.10
2006,06,27,15,49,25.00
2006,06,27,15,50,25.00
2006,06,27,15,51,25.20
2006,06,27,15,52,25.20
2006,06,27,15,53,25.30
2006,06,27,15,54,25.30
2006,06,27,15,55,25.30
2006,06,27,15,56,25.30
2006,06,27,15,57,25.30
2006,06,27,15,58,25.40
2006,06,27,15,59,25.30
2006,06,27,16,00,25.30
2006,06,27,16,01,25.20
2006,06,27,16,02,25.40
2006,06,27,16,03,25.40
2006,06,27,16,04,25.40
2006,06,27,16,05,25.40
2006,06,27,16,06,25.40
2006,06,27,16,07,25.40
2006,06,27,16,08,25.50
2006,06,27,16,09,25.60
2006,06,27,16,10,25.70
2006,06,27,16,11,25.80
2006,06,27,16,12,25.80
2006,06,27,16,13,25.90
2006,06,27,16,14,26.10
2006,06,27,16,15,26.10
2006,06,27,16,16,25.90
2006,06,27,16,17,25.90
2006,06,27,16,18,25.80
2006,06,27,16,19,25.80
2006,06,27,16,20,26.00
2006,06,27,16,21,26.30
2006,06,27,16,22,26.30
2006,06,27,16,23,26.40
2006,06,27,16,24,26.40
2006,06,27,16,25,26.30
2006,06,27,16,26,26.30
2006,06,27,16,27,26.20
2006,06,27,16,28,26.30
2006,06,27,16,29,26.40
2006,06,27,16,30,26.50
2006,06,27,16,31,26.70
2006,06,27,16,32,26.90
2006,06,27,16,33,27.10
2006,06,27,16,34,27.10
2006,06,27,16,35,27.10
2006,06,27,16,36,27.10
2006,06,27,16,37,27.20
2006,06,27,16,38,27.10
2006,06,27,16,39,26.90
2006,06,27,16,40,26.90
2006,06,27,16,41,26.90
2006,06,27,16,42,26.90
2006,06,27,16,43,26.90
2006,06,27,16,44,26.90
2006,06,27,16,45,27.10
2006,06,27,16,46,27.10
2006,06,27,16,47,27.20
2006,06,27,16,48,27.20
2006,06,27,16,49,27.10
2006,06,27,16,50,27.10
2006,06,27,16,51,27.00
2006,06,27,16,52,26.90
2006,06,27,16,53,27.00
2006,06,27,16,54,27.20
2006,06,27,16,55,27.20
2006,06,27,16,56,27.30
2006,06,27,16,57,27.30
2006,06,27,16,58,27.40
2006,06,27,16,59,27.40
2006,06,27,17,00,27.60
2006,06,27,17,01,27.70
2006,06,27,17,02,27.70
2006,06,27,17,03,27.80
2006,06,27,17,04,27.90
2006,06,27,17,05,28.00
2006,06,27,17,06,28.10
2006,06,27,17,07,28.10
2006,06,27,17,08,28.10
2006,06,27,17,09,28.10
2006,06,27,17,10,28.20
2006,06,27,17,11,28.20
2006,06,27,17,12,28.10
2006,06,27,17,13,28.00
2006,06,27,17,14,27.90
2006,06,27,17,15,27.80
2006,06,27,17,16,27.80
2006,06,27,17,17,27.80
2006,06,27,17,18,27.70
2006,06,27,17,19,27.60